Weather History for Jaffrey, NH

Change the Weather History Date:

Tuesday, June 4, 2013

  Actual Average Record
Temperature  
Mean Temperature 57 °F -  
Max Temperature 68 °F 67 °F 87 °F (2005)
Min Temperature 48 °F 45 °F 35 °F (2002)
Degree Days  
Heating Degree Days 8    
Growing Degree Days 7 (Base 50)    
Moisture  
Dew Point 40 °F    
Average Humidity 55    
Maximum Humidity 86    
Minimum Humidity 37    
Precipitation  
Precipitation 0.01 in - - ()
Sea Level Pressure  
Sea Level Pressure 29.98 in    
Wind  
Wind Speed 6 mph (WNW)    
Max Wind Speed 10 mph    
Max Gust Speed 21 mph    
Visibility 10 miles    
Events      
Averages and records for this station are not official NWS values.
T = Trace of Precipitation, MM = Missing Value Source: NWS Daily Summary

Daily Weather History Graph

Daily Weather History Graph

Search for Another Location

Airport:

Trip Planner

Search our weather history database for the weather conditions in past years. The results will help you decide how hot, cold, wet, or windy it might be!

Date:

Astronomy

Jun. 04, 2013 Rise Set
Actual Time 5:10 AM EDT 8:22 PM EDT
Civil Twilight 4:36 AM EDT 8:56 PM EDT
Nautical Twilight 3:51 AM EDT 9:41 PM EDT
Astronomical Twilight 2:58 AM EDT 10:35 PM EDT
Moon 2:44 AM EDT (6/4) 4:44 PM EDT (6/4)
Length of Visible Light 16h 20m
Length of Day
15h 11m
Waning Crescent, 14% of the Moon is Illuminated
Jun 4
Waning Crescent
Jun 8
New
Jun 16
First Quarter
Jun 23
Full
Jun 30
Last Quarter

Hourly Weather History & Observations

Time (EDT) Temp. Dew Point Humidity Pressure Visibility Wind Dir Wind Speed Gust Speed Precip Events Conditions
12:52 AM 53.1 °F 43.0 °F 69% 29.90 in 10.0 mi Variable 4.6 mph - N/A   Clear
1:52 AM 52.0 °F 37.0 °F 57% 29.91 in 10.0 mi West 6.9 mph - N/A   Clear
2:52 AM 51.1 °F 35.1 °F 54% 29.90 in 10.0 mi Variable 4.6 mph - N/A   Clear
3:52 AM 48.9 °F 36.0 °F 61% 29.90 in 10.0 mi West 5.8 mph - N/A   Clear
4:52 AM 48.0 °F 36.0 °F 63% 29.90 in 10.0 mi West 6.9 mph - N/A   Clear
5:52 AM 48.9 °F 36.0 °F 61% 29.93 in 10.0 mi WNW 6.9 mph - N/A   Clear
6:52 AM 50.0 °F 37.0 °F 61% 29.94 in 10.0 mi Variable 6.9 mph - N/A   Clear
7:52 AM 53.1 °F 37.9 °F 57% 29.94 in 10.0 mi NW 8.1 mph 17.3 mph N/A   Clear
8:52 AM 54.0 °F 39.0 °F 57% 29.96 in 10.0 mi WNW 9.2 mph - N/A   Clear
9:52 AM 57.0 °F 39.0 °F 51% 29.95 in 10.0 mi NW 9.2 mph - N/A   Clear
10:52 AM 59.0 °F 39.0 °F 48% 29.96 in 10.0 mi NW 10.4 mph 17.3 mph N/A   Mostly Cloudy
11:52 AM 62.1 °F 39.0 °F 43% 29.97 in 10.0 mi NNW 8.1 mph - N/A   Clear
12:52 PM 61.0 °F 39.0 °F 44% 29.99 in 10.0 mi NW 9.2 mph - 0.01 in   Overcast
1:52 PM 63.0 °F 39.9 °F 43% 29.99 in 10.0 mi West 9.2 mph 18.4 mph N/A   Mostly Cloudy
2:52 PM 64.0 °F 39.0 °F 40% 29.99 in 10.0 mi North 10.4 mph 20.7 mph N/A   Mostly Cloudy
3:52 PM 66.0 °F 39.9 °F 38% 29.99 in 10.0 mi NW 9.2 mph - N/A   Partly Cloudy
4:52 PM 66.9 °F 39.9 °F 37% 29.99 in 10.0 mi Variable 5.8 mph - N/A   Partly Cloudy
5:52 PM 66.9 °F 39.9 °F 37% 29.99 in 10.0 mi Variable 5.8 mph - N/A   Clear
6:52 PM 66.0 °F 41.0 °F 40% 30.02 in 10.0 mi Variable 4.6 mph - N/A   Clear
7:52 PM 63.0 °F 41.0 °F 45% 30.04 in 10.0 mi Calm Calm - N/A   Clear
8:52 PM 55.0 °F 46.9 °F 74% 30.08 in 10.0 mi Calm Calm - N/A   Clear
9:52 PM 54.0 °F 44.1 °F 69% 30.10 in 10.0 mi Calm Calm - N/A   Clear
10:52 PM 52.0 °F 44.1 °F 74% 30.12 in 10.0 mi Calm Calm - N/A   Clear
11:52 PM 48.9 °F 45.0 °F 86% 30.15 in 10.0 mi Calm Calm - N/A   Clear